Weather History for Oxford, MS

Change the Weather History Date:

Friday, January 18, 2013

  Actual Average Record
Temperature  
Mean Temperature 37 °F -  
Max Temperature 51 °F 49 °F 72 °F (1951)
Min Temperature 23 °F 30 °F -1 °F (1948)
Degree Days  
Heating Degree Days 28    
Moisture  
Dew Point 27 °F    
Average Humidity 76    
Maximum Humidity 100    
Minimum Humidity 30    
Precipitation  
Precipitation 0.00 in - - ()
Sea Level Pressure  
Sea Level Pressure 30.49 in    
Wind  
Wind Speed 0 mph (ENE)    
Max Wind Speed 5 mph    
Max Gust Speed -    
Visibility 7 miles    
Events      
Averages and records for this station are not official NWS values.
T = Trace of Precipitation, MM = Missing Value Source: NWS Daily Summary

Daily Weather History Graph

Daily Weather History Graph

Search for Another Location

Airport:

Trip Planner

Search our weather history database for the weather conditions in past years. The results will help you decide how hot, cold, wet, or windy it might be!

Date:

Astronomy

Jan. 18, 2013 Rise Set
Actual Time 7:03 AM CST 5:14 PM CST
Civil Twilight 6:36 AM CST 5:41 PM CST
Nautical Twilight 6:05 AM CST 6:12 PM CST
Astronomical Twilight 5:35 AM CST 6:42 PM CST
Moon 11:03 AM CST (1/18) No Moon Set
Length of Visible Light 11h 05m
Length of Day
10h 11m
Waxing Crescent, 47% of the Moon is Illuminated
Jan 18
Waxing Crescent
Jan 18
First Quarter
Jan 26
Full
Feb 3
Last Quarter
Feb 10
New

Hourly Weather History & Observations

Time (CST) Temp. Windchill Dew Point Humidity Pressure Visibility Wind Dir Wind Speed Gust Speed Precip Events Conditions
12:15 AM 28.4 °F - 26.6 °F 93% 30.49 in 5.0 mi Calm Calm - N/A   Clear
1:35 AM 28.4 °F - 26.6 °F 93% 30.51 in 3.0 mi Calm Calm - N/A   Clear
1:55 AM 26.6 °F - 26.6 °F 100% 30.52 in 4.0 mi Calm Calm - N/A   Clear
2:15 AM 26.6 °F - 24.8 °F 93% 30.51 in 5.0 mi Calm Calm - N/A   Clear
2:35 AM 26.6 °F - 24.8 °F 93% 30.52 in 5.0 mi Calm Calm - N/A   Clear
2:55 AM 26.6 °F - 24.8 °F 93% 30.52 in 5.0 mi Calm Calm - N/A   Clear
3:15 AM 24.8 °F - 24.8 °F 100% 30.52 in 5.0 mi Calm Calm - N/A   Clear
3:35 AM 26.6 °F - 24.8 °F 93% 30.53 in 5.0 mi Calm Calm - N/A   Clear
3:55 AM 26.6 °F - 24.8 °F 93% 30.53 in 5.0 mi Calm Calm - N/A   Clear
4:15 AM 24.8 °F - 24.8 °F 100% 30.53 in 4.0 mi Calm Calm - N/A   Clear
4:35 AM 26.6 °F - 24.8 °F 93% 30.53 in 3.0 mi Calm Calm - N/A   Clear
4:55 AM 24.8 °F - 24.8 °F 100% 30.53 in 3.0 mi Calm Calm - N/A   Clear
5:15 AM 24.8 °F - 24.8 °F 100% 30.53 in 5.0 mi Calm Calm - N/A   Clear
5:35 AM 24.8 °F - 24.8 °F 100% 30.53 in 5.0 mi Calm Calm - N/A   Clear
5:55 AM 24.8 °F - 23.0 °F 93% 30.54 in 5.0 mi Calm Calm - N/A   Clear
6:15 AM 24.8 °F - 23.0 °F 93% 30.54 in 5.0 mi Calm Calm - N/A   Clear
6:35 AM 24.8 °F - 23.0 °F 93% 30.54 in 5.0 mi Calm Calm - N/A   Clear
6:55 AM 23.0 °F - 23.0 °F 100% 30.55 in 4.0 mi Calm Calm - N/A   Clear
7:15 AM 23.0 °F - 23.0 °F 100% 30.55 in 3.0 mi Calm Calm - N/A   Clear
7:35 AM 23.0 °F - 23.0 °F 100% 30.56 in 5.0 mi Calm Calm - N/A   Clear
7:55 AM 24.8 °F - 23.0 °F 93% 30.57 in 5.0 mi Calm Calm - N/A   Clear
8:15 AM 26.6 °F - 26.6 °F 100% 30.57 in 5.0 mi Calm Calm - N/A   Clear
8:35 AM 30.2 °F - 28.4 °F 93% 30.58 in 5.0 mi Calm Calm - N/A   Clear
8:55 AM 32.0 °F 27.5 °F 28.4 °F 87% 30.59 in 6.0 mi East 4.6 mph - N/A   Clear
9:15 AM 35.6 °F 31.7 °F 28.4 °F 75% 30.59 in 7.0 mi East 4.6 mph - N/A   Clear
9:55 AM 37.4 °F 34.9 °F 28.4 °F 70% 30.60 in 8.0 mi NE 3.5 mph - N/A   Clear
10:15 AM 39.2 °F - 28.4 °F 65% 30.59 in 7.0 mi Calm Calm - N/A   Clear
10:35 AM 41.0 °F - 28.4 °F 61% 30.59 in 8.0 mi Calm Calm - N/A   Clear
10:55 AM 41.0 °F - 28.4 °F 61% 30.58 in 8.0 mi Calm Calm - N/A   Clear
11:15 AM 42.8 °F - 28.4 °F 57% 30.56 in 9.0 mi Calm Calm - N/A   Clear
11:35 AM 44.6 °F - 28.4 °F 53% 30.55 in 9.0 mi Calm Calm - N/A   Clear
11:55 AM 44.6 °F - 26.6 °F 49% 30.54 in 8.0 mi Calm Calm - N/A   Clear
12:15 PM 46.4 °F - 26.6 °F 46% 30.52 in 9.0 mi Calm Calm - N/A   Clear
12:35 PM 46.4 °F - 26.6 °F 46% 30.51 in 5.0 mi Calm Calm - N/A   Haze
12:55 PM 48.2 °F - 26.6 °F 43% 30.50 in 9.0 mi Calm Calm - N/A   Clear
1:15 PM 48.2 °F - 24.8 °F 40% 30.49 in 9.0 mi NNW 3.5 mph - N/A   Clear
1:35 PM 50.0 °F - 24.8 °F 37% 30.48 in 9.0 mi North 3.5 mph - N/A   Clear
1:55 PM 50.0 °F - 24.8 °F 37% 30.48 in 9.0 mi Calm Calm - N/A   Clear
2:15 PM 51.8 °F - 24.8 °F 35% 30.47 in 1.8 mi Calm Calm - N/A   Haze
2:55 PM 51.8 °F - 26.6 °F 38% 30.45 in 9.0 mi South 3.5 mph - N/A   Clear
3:15 PM 51.8 °F - 21.2 °F 30% 30.45 in 9.0 mi South 3.5 mph - N/A   Clear
3:35 PM 51.8 °F - 23.0 °F 33% 30.45 in 10.0 mi Calm Calm - N/A   Clear
3:55 PM 51.8 °F - 24.8 °F 35% 30.45 in 9.0 mi Calm Calm - N/A   Clear
4:15 PM 51.8 °F - 24.8 °F 35% 30.44 in 9.0 mi Calm Calm - N/A   Clear
4:35 PM 50.0 °F - 26.6 °F 40% 30.44 in 8.0 mi Calm Calm - N/A   Clear
4:55 PM 48.2 °F - 26.6 °F 43% 30.44 in 9.0 mi Calm Calm - N/A   Clear
5:15 PM 44.6 °F - 32.0 °F 61% 30.44 in 9.0 mi Calm Calm - N/A   Clear
5:55 PM 39.2 °F - 30.2 °F 70% 30.44 in 10.0 mi Calm Calm - N/A   Clear
6:15 PM 37.4 °F - 32.0 °F 81% 30.44 in 10.0 mi Calm Calm - N/A   Clear
6:35 PM 35.6 °F - 32.0 °F 87% 30.44 in 10.0 mi Calm Calm - N/A   Clear
6:55 PM 33.8 °F - 32.0 °F 93% 30.44 in 9.0 mi Calm Calm - N/A   Clear
7:15 PM 32.0 °F - 30.2 °F 93% 30.43 in 10.0 mi Calm Calm - N/A   Clear
7:35 PM 32.0 °F - 30.2 °F 93% 30.43 in 10.0 mi Calm Calm - N/A   Clear
7:55 PM 32.0 °F - 28.4 °F 87% 30.43 in 9.0 mi Calm Calm - N/A   Clear
8:15 PM 32.0 °F - 28.4 °F 87% 30.43 in 10.0 mi Calm Calm - N/A   Clear
8:35 PM 32.0 °F - 28.4 °F 87% 30.42 in 10.0 mi Calm Calm - N/A   Clear
8:55 PM 32.0 °F - 28.4 °F 87% 30.41 in 9.0 mi Calm Calm - N/A   Clear
9:15 PM 32.0 °F - 28.4 °F 87% 30.41 in 9.0 mi Calm Calm - N/A   Clear
9:35 PM 30.2 °F - 28.4 °F 93% 30.42 in 10.0 mi Calm Calm - N/A   Clear
9:55 PM 30.2 °F - 28.4 °F 93% 30.41 in 9.0 mi Calm Calm - N/A   Clear
10:15 PM 30.2 °F - 28.4 °F 93% 30.41 in 9.0 mi Calm Calm - N/A   Clear
10:55 PM 28.4 °F - 26.6 °F 93% 30.40 in 8.0 mi Calm Calm - N/A   Clear
11:15 PM 28.4 °F - 26.6 °F 93% 30.40 in 9.0 mi Calm Calm - N/A   Clear
11:55 PM 28.4 °F - 26.6 °F 93% 30.39 in 10.0 mi Calm Calm - N/A   Clear